TimeWET,TemperatureF,Dew PointF,Humidity,Sea Level PressureIn,VisibilityMPH,Wind Direction,Wind SpeedMPH,Gust SpeedMPH,PrecipitationIn,Events,Conditions,WindDirDegrees,DateUTC
12:00 AM,68.0,66.2,94,30.06,0.4,Calm,Calm,-,N/A,Fog,Fog,0,2012-10-09 00:00:00
12:30 AM,68.0,66.2,94,30.06,1.0,Calm,Calm,-,N/A,,Mostly Cloudy,0,2012-10-09 00:30:00
1:00 AM,68.0,66.2,94,30.06,1.0,Calm,Calm,-,N/A,,Mostly Cloudy,0,2012-10-09 01:00:00
1:30 AM,66.2,64.4,94,30.04,0.5,Calm,Calm,-,N/A,Fog,Fog,0,2012-10-09 01:30:00
2:00 AM,66.2,64.4,94,30.04,0.5,Calm,Calm,-,N/A,Fog,Fog,0,2012-10-09 02:00:00
2:30 AM,66.2,64.4,94,30.04,0.1,Calm,Calm,-,N/A,Fog,Fog,0,2012-10-09 02:30:00
3:00 AM,65,64,95,30.05,0,Calm,Calm,,,Fog,Partial Fog,,2012-10-09 03:00:00
3:00 AM,66.2,64.4,94,30.04,0.1,Calm,Calm,-,N/A,Fog,Fog,0,2012-10-09 03:00:00
3:30 AM,64.4,62.6,94,30.04,0.1,Calm,Calm,-,N/A,Fog,Fog,0,2012-10-09 03:30:00
4:00 AM,64.4,62.6,94,30.04,0.1,Calm,Calm,-,N/A,Fog,Fog,0,2012-10-09 04:00:00
4:30 AM,62.6,62.6,100,30.04,0.1,Calm,Calm,-,N/A,Fog,Fog,0,2012-10-09 04:30:00
5:00 AM,62.6,62.6,100,30.04,-9999.0,Calm,Calm,-,N/A,,Unknown,0,2012-10-09 05:00:00
5:30 AM,62.6,62.6,100,30.04,0.1,Calm,Calm,-,N/A,Fog,Fog,0,2012-10-09 05:30:00
6:00 AM,64,63,94,30.04,0,Calm,Calm,,,Fog,Partial Fog,,2012-10-09 06:00:00
6:00 AM,64.4,62.6,94,30.04,0.1,Calm,Calm,-,N/A,Fog,Fog,0,2012-10-09 06:00:00
7:00 AM,64.4,62.6,94,30.04,0.1,Calm,Calm,-,N/A,Fog,Fog,0,2012-10-09 07:00:00
7:30 AM,64.4,62.6,94,30.06,0.1,Calm,Calm,-,N/A,Fog,Fog,0,2012-10-09 07:30:00
8:28 AM,66.2,64.4,94,30.06,0.6,Calm,Calm,-,N/A,,Mostly Cloudy,0,2012-10-09 08:28:00
8:30 AM,66.2,64.4,94,30.06,0.6,Calm,Calm,-,N/A,,Mostly Cloudy,0,2012-10-09 08:30:00
9:00 AM,67,66,96,30.08,1,Calm,Calm,,,,Mist,,2012-10-09 09:00:00
9:00 AM,68.0,66.2,94,30.06,0.6,Calm,Calm,-,N/A,,Mostly Cloudy,0,2012-10-09 09:00:00
9:30 AM,69.8,68.0,94,30.06,0.8,Calm,Calm,-,N/A,,Scattered Clouds,0,2012-10-09 09:30:00
10:00 AM,73.4,68.0,83,30.06,2.5,Variable,2.3,-,N/A,,Partly Cloudy,0,2012-10-09 10:00:00
11:00 AM,73.4,64.4,73,30.06,1.2,NW,6.9,-,N/A,,Partly Cloudy,320,2012-10-09 11:00:00
12:00 PM,76,65,61,30.04,2,NNW,6.9,,,,Mist,340,2012-10-09 12:00:00
12:00 PM,77.0,64.4,65,30.04,1.9,NNW,6.9,-,N/A,,Clear,340,2012-10-09 12:00:00
12:30 PM,77.0,64.4,65,30.04,2.5,North,8.1,-,N/A,,Clear,350,2012-10-09 12:30:00
1:00 PM,78.8,64.4,61,30.01,2.5,North,8.1,-,N/A,,Clear,360,2012-10-09 13:00:00
1:30 PM,78.8,62.6,57,30.01,2.5,North,8.1,-,N/A,,Clear,350,2012-10-09 13:30:00
1:43 PM,78.8,62.6,57,30.01,3.1,North,9.2,-,N/A,,Clear,350,2012-10-09 13:43:00
2:00 PM,78.8,62.6,57,30.01,3.1,North,9.2,-,N/A,,Clear,350,2012-10-09 14:00:00
2:30 PM,77.0,64.4,65,29.98,3.1,NNW,10.4,-,N/A,,Clear,340,2012-10-09 14:30:00
3:00 PM,78,65,56,29.98,3,North,10.4,,,,,350,2012-10-09 15:00:00
3:00 PM,77.0,64.4,65,29.98,3.1,North,10.4,-,N/A,,Clear,350,2012-10-09 15:00:00
3:30 PM,77.0,66.2,69,29.98,3.1,North,10.4,-,N/A,,Clear,360,2012-10-09 15:30:00
4:00 PM,77.0,68.0,74,29.98,3.1,North,9.2,-,N/A,,Clear,350,2012-10-09 16:00:00
4:30 PM,75.2,66.2,73,29.98,3.7,North,10.4,-,N/A,,Partly Cloudy,360,2012-10-09 16:30:00
5:00 PM,75.2,66.2,73,29.98,3.7,North,9.2,-,N/A,,Partly Cloudy,360,2012-10-09 17:00:00
5:30 PM,73.4,66.2,78,29.98,3.7,North,8.1,-,N/A,,Partly Cloudy,360,2012-10-09 17:30:00
7:00 PM,69.8,66.2,88,30.01,1.9,Calm,Calm,-,N/A,,Scattered Clouds,0,2012-10-09 19:00:00
7:30 PM,68.0,66.2,94,30.01,1.9,Calm,Calm,-,N/A,,Scattered Clouds,0,2012-10-09 19:30:00
7:55 PM,68.0,66.2,94,30.04,3.1,Calm,Calm,-,N/A,,Scattered Clouds,0,2012-10-09 19:55:00
8:00 PM,68.0,64.4,88,30.04,3.1,Calm,Calm,-,N/A,,Scattered Clouds,0,2012-10-09 20:00:00
8:30 PM,64.4,62.6,94,30.04,3.1,Calm,Calm,-,N/A,,Scattered Clouds,0,2012-10-09 20:30:00
9:00 PM,63,61,92,30.04,3,Calm,Calm,,,,Scattered Clouds,,2012-10-09 21:00:00
9:00 PM,62.6,60.8,94,30.04,0.7,Calm,Calm,-,N/A,,Scattered Clouds,0,2012-10-09 21:00:00
9:30 PM,66.2,64.4,94,30.04,2.5,Calm,Calm,-,N/A,,Scattered Clouds,0,2012-10-09 21:30:00
10:00 PM,64.4,62.6,94,30.04,2.5,Calm,Calm,-,N/A,,Scattered Clouds,0,2012-10-09 22:00:00
10:30 PM,62.6,60.8,94,30.04,2.5,Calm,Calm,-,N/A,,Scattered Clouds,0,2012-10-09 22:30:00
11:00 PM,62.6,60.8,94,30.01,2.5,Calm,Calm,-,N/A,,Scattered Clouds,0,2012-10-09 23:00:00
11:30 PM,64.4,62.6,94,30.01,2.5,Calm,Calm,-,N/A,,Scattered Clouds,0,2012-10-09 23:30:00